カタログに戻る

STARLINK-32663

運用中通信VLEO
NORAD 62197·PAYLOAD·🇺🇸 United States

打ち上げ Dec 4, 2024 から Cape Canaveral Space Force Station

Loading…

次のパス (今後24時間)

TLE

最新Source: CelesTrak SupGP

元期: Sep 14, 2026, 21:02 UTC

1 62197C 24229F   26257.87687500  .00001895  00000+0  68625-4 0  2577
2 62197  43.0003 282.6348 0001448 265.5485   0.1661 15.27574394    14

AllMySatでSTARLINK-32663をリアルタイム追跡

Download on the App Store